Tracking 26240 objects as of 6-Oct-2022
HD Live streaming from Space Station
objects crossing your sky now

STARLINK-3260

Track STARLINK-3260 now!
10-day predictions
STARLINK-3260 is classified as:


NORAD ID: 50205
Int'l Code: 2021-125BB
Perigee: 545.6 km
Apogee: 548.2 km
Inclination: 53.2 °
Period: 95.4 minutes
Semi major axis: 6917 km
RCS: Unknown
Launch date: December 18, 2021
Source: United States (US)
Launch site: AIR FORCE WESTERN TEST RANGE (AFWTR)
aabbcc
Your satellite tracking list
Your tracking list is empty




NASA's NSSDC Master Catalog

Two Line Element Set (TLE):
1 50205U 21125BB  22279.25001157  .00030023  00000-0  18975-2 0  9996
2 50205  53.2169  62.5575 0001888  46.3229 277.3853 15.08820033 47917
Source of the keplerian elements: AFSPC